{"data":{"norad_id":58862,"epoch":"2026-09-20T06:45:15.672096Z","epoch_age_seconds":171375,"freshness":"FRESH","line1":"1 58862U 24019K   26263.28143139  .00000337  00000+0  21774-4 0  9992","line2":"2 58862  43.0019 229.8862 0000959 280.7801  79.2943 15.27574335148845","mean_motion":15.27574335,"eccentricity":9.59e-5,"inclination_deg":43.0019,"raan_deg":229.8862,"arg_perigee_deg":280.7801,"mean_anomaly_deg":79.2943,"bstar":2.1774e-5,"rev_number":14884,"period_min":94.267098301308,"perigee_km":482.40806976668,"apogee_km":483.72404851342,"semimajor_km":6861.20305914,"source":"CELESTRAK","updated_at":"2026-09-21T09:00:33.988771Z"}}